Weather History for Imperial, CA

Change the Weather History Date:

Saturday, April 14, 2012

  Actual Average Record
Temperature  
Mean Temperature 58 °F -  
Max Temperature 69 °F 84 °F 102 °F (2002)
Min Temperature 48 °F 55 °F 46 °F (1972)
Degree Days  
Heating Degree Days 7    
Growing Degree Days 8 (Base 50)    
Moisture  
Dew Point 35 °F    
Average Humidity 44    
Maximum Humidity 61    
Minimum Humidity 25    
Precipitation  
Precipitation 0.00 in - - ()
Sea Level Pressure  
Sea Level Pressure 29.87 in    
Wind  
Wind Speed 17 mph (West)    
Max Wind Speed 25 mph    
Max Gust Speed 39 mph    
Visibility 10 miles    
Events      
Averages and records for this station are not official NWS values.
T = Trace of Precipitation, MM = Missing Value Source: NWS Daily Summary

Daily Weather History Graph

Daily Weather History Graph

Search for Another Location

Airport:

Trip Planner

Search our weather history database for the weather conditions in past years. The results will help you decide how hot, cold, wet, or windy it might be!

Date:

Astronomy

Apr. 14, 2012 Rise Set
Actual Time 6:13 AM PDT 7:12 PM PDT
Civil Twilight 5:47 AM PDT 7:37 PM PDT
Nautical Twilight 5:17 AM PDT 8:07 PM PDT
Astronomical Twilight 4:47 AM PDT 8:38 PM PDT
Moon 2:19 AM PDT (4/14) 1:28 PM PDT (4/14)
Length of Visible Light 13h 49m
Length of Day
12h 59m
Last Quarter, 36% of the Moon is Illuminated
Apr 14
Last Quarter
Apr 21
New
Apr 29
First Quarter
May 5
Full
May 12
Last Quarter

Hourly Weather History & Observations

Time (PDT) Temp. Dew Point Humidity Pressure Visibility Wind Dir Wind Speed Gust Speed Precip Events Conditions
12:53 AM 51.1 °F 35.1 °F 54% 29.78 in 10.0 mi WSW 23.0 mph 33.4 mph N/A   Clear
1:53 AM 52.0 °F 35.1 °F 53% 29.78 in 10.0 mi WSW 18.4 mph 28.8 mph N/A   Clear
2:53 AM 51.1 °F 34.0 °F 52% 29.79 in 10.0 mi WSW 17.3 mph 26.5 mph N/A   Clear
3:53 AM 50.0 °F 35.1 °F 57% 29.81 in 10.0 mi WSW 13.8 mph - N/A   Clear
4:53 AM 48.9 °F 36.0 °F 61% 29.81 in 10.0 mi NNW 3.5 mph - N/A   Clear
5:53 AM 48.9 °F 36.0 °F 61% 29.81 in 10.0 mi West 6.9 mph - N/A   Clear
6:53 AM 52.0 °F 36.0 °F 54% 29.80 in 10.0 mi WSW 17.3 mph 28.8 mph N/A   Clear
7:53 AM 55.0 °F 36.0 °F 49% 29.83 in 10.0 mi Variable 5.8 mph - N/A   Clear
8:53 AM 59.0 °F 36.0 °F 42% 29.83 in 10.0 mi West 15.0 mph 25.3 mph N/A   Clear
9:53 AM 61.0 °F 34.0 °F 36% 29.84 in 10.0 mi WNW 16.1 mph 21.9 mph N/A   Clear
10:53 AM 63.0 °F 33.1 °F 33% 29.86 in 10.0 mi West 24.2 mph 34.5 mph N/A   Scattered Clouds
11:53 AM 64.9 °F 32.0 °F 29% 29.86 in 10.0 mi WSW 25.3 mph 39.1 mph N/A   Partly Cloudy
12:53 PM 66.9 °F 32.0 °F 27% 29.86 in 10.0 mi West 19.6 mph 28.8 mph N/A   Clear
1:53 PM 68.0 °F 34.0 °F 28% 29.86 in 10.0 mi WSW 23.0 mph 32.2 mph N/A   Scattered Clouds
2:53 PM 66.9 °F 30.0 °F 25% 29.87 in 10.0 mi NW 16.1 mph 25.3 mph N/A   Scattered Clouds
3:53 PM 64.9 °F 35.1 °F 33% 29.87 in 10.0 mi West 21.9 mph 35.7 mph N/A   Scattered Clouds
4:53 PM 64.9 °F 35.1 °F 33% 29.88 in 10.0 mi WSW 21.9 mph 35.7 mph N/A   Clear
5:53 PM 63.0 °F 35.1 °F 35% 29.90 in 10.0 mi WSW 19.6 mph 33.4 mph N/A   Clear
6:53 PM 60.1 °F 35.1 °F 39% 29.93 in 10.0 mi West 23.0 mph 32.2 mph N/A   Clear
7:53 PM 57.0 °F 36.0 °F 45% 29.96 in 10.0 mi WSW 20.7 mph - N/A   Clear
8:53 PM 55.0 °F 37.0 °F 51% 29.99 in 10.0 mi West 16.1 mph 24.2 mph N/A   Clear
9:53 PM 54.0 °F 37.0 °F 53% 30.01 in 10.0 mi West 15.0 mph - N/A   Clear
10:53 PM 52.0 °F 36.0 °F 54% 30.01 in 10.0 mi West 10.4 mph - N/A   Clear
11:53 PM 51.1 °F 37.0 °F 59% 30.02 in 10.0 mi West 9.2 mph - N/A   Clear